Weather History for Mineral Wells, TX

Change the Weather History Date:

Sunday, March 24, 2013

  Actual Average Record
Temperature  
Mean Temperature 43 °F -  
Max Temperature 53 °F 67 °F 84 °F (2005)
Min Temperature 34 °F 45 °F 27 °F (2006)
Degree Days  
Heating Degree Days 22    
Moisture  
Dew Point 25 °F    
Average Humidity 56    
Maximum Humidity 81    
Minimum Humidity 25    
Precipitation  
Precipitation 0.00 in - - ()
Sea Level Pressure  
Sea Level Pressure 30.08 in    
Wind  
Wind Speed 20 mph (NNW)    
Max Wind Speed 26 mph    
Max Gust Speed 37 mph    
Visibility 10 miles    
Events      
Averages and records for this station are not official NWS values.
T = Trace of Precipitation, MM = Missing Value Source: NWS Daily Summary

Daily Weather History Graph

Daily Weather History Graph

Search for Another Location

Airport:

Trip Planner

Search our weather history database for the weather conditions in past years. The results will help you decide how hot, cold, wet, or windy it might be!

Date:

Astronomy

Mar. 24, 2013 Rise Set
Actual Time 7:30 AM CDT 7:46 PM CDT
Civil Twilight 7:05 AM CDT 8:11 PM CDT
Nautical Twilight 6:36 AM CDT 8:40 PM CDT
Astronomical Twilight 6:07 AM CDT 9:09 PM CDT
Moon 5:22 PM CDT (3/24) 5:33 AM CDT (3/24)
Length of Visible Light 13h 05m
Length of Day
12h 16m
Waxing Gibbous, 92% of the Moon is Illuminated
Mar 24
Waxing Gibbous
Mar 27
Full
Apr 2
Last Quarter
Apr 10
New
Apr 18
First Quarter

Hourly Weather History & Observations

Time (CDT) Temp. Windchill Dew Point Humidity Pressure Visibility Wind Dir Wind Speed Gust Speed Precip Events Conditions
1:25 AM 42.8 °F 33.5 °F 37.4 °F 81% 29.94 in 10.0 mi NNW 23.0 mph 29.9 mph N/A   Overcast
1:41 AM 41.0 °F 31.1 °F 35.6 °F 81% 29.95 in 10.0 mi NW 23.0 mph 33.4 mph N/A   Mostly Cloudy
1:53 AM 41.0 °F 32.2 °F 35.1 °F 79% 29.95 in 10.0 mi NW 18.4 mph 31.1 mph N/A   Scattered Clouds
2:08 AM 41.0 °F 30.7 °F 35.6 °F 81% 29.97 in 10.0 mi NW 25.3 mph 31.1 mph N/A   Mostly Cloudy
2:53 AM 41.0 °F 30.9 °F 33.1 °F 73% 29.98 in 10.0 mi NW 24.2 mph 33.4 mph N/A   Mostly Cloudy
3:17 AM 39.2 °F 28.5 °F 30.2 °F 70% 29.98 in 10.0 mi NW 24.2 mph 36.8 mph N/A   Scattered Clouds
3:53 AM 37.9 °F 27.3 °F 30.0 °F 73% 29.99 in 10.0 mi NW 21.9 mph 33.4 mph N/A   Partly Cloudy
4:53 AM 36.0 °F 24.7 °F 27.0 °F 70% 30.02 in 10.0 mi NW 21.9 mph 27.6 mph N/A   Clear
5:24 AM 35.6 °F 23.7 °F 26.6 °F 70% 30.03 in 10.0 mi NW 24.2 mph 32.2 mph N/A   Mostly Cloudy
5:53 AM 36.0 °F 24.2 °F 27.0 °F 70% 30.04 in 10.0 mi NNW 24.2 mph 29.9 mph N/A   Overcast
6:18 AM 35.6 °F 24.8 °F 26.6 °F 70% 30.04 in 10.0 mi NW 19.6 mph 28.8 mph N/A   Mostly Cloudy
6:53 AM 35.1 °F 24.8 °F 26.1 °F 70% 30.06 in 10.0 mi NW 17.3 mph - N/A   Partly Cloudy
7:53 AM 34.0 °F 24.6 °F 26.1 °F 73% 30.10 in 10.0 mi WNW 13.8 mph 24.2 mph N/A   Partly Cloudy
8:27 AM 35.6 °F 25.2 °F 26.6 °F 70% 30.12 in 10.0 mi NW 18.4 mph - N/A   Mostly Cloudy
8:53 AM 35.1 °F 22.5 °F 25.0 °F 67% 30.14 in 10.0 mi NW 26.5 mph 34.5 mph N/A   Mostly Cloudy
9:15 AM 35.6 °F 23.7 °F 24.8 °F 65% 30.14 in 10.0 mi NNW 24.2 mph 35.7 mph N/A   Scattered Clouds
9:53 AM 37.9 °F 26.6 °F 25.0 °F 60% 30.15 in 10.0 mi NNW 25.3 mph 33.4 mph N/A   Clear
10:53 AM 41.0 °F 31.1 °F 24.1 °F 51% 30.16 in 10.0 mi NNW 23.0 mph 32.2 mph N/A   Clear
11:53 AM 44.1 °F 35.4 °F 24.1 °F 45% 30.17 in 10.0 mi NNW 21.9 mph 31.1 mph N/A   Clear
12:53 PM 46.9 °F - 25.0 °F 42% 30.16 in 10.0 mi NNW 15.0 mph 27.6 mph N/A   Clear
1:53 PM 48.9 °F - 24.1 °F 38% 30.14 in 10.0 mi NW 19.6 mph 31.1 mph N/A   Clear
2:53 PM 50.0 °F - 24.1 °F 36% 30.12 in 10.0 mi NW 19.6 mph 28.8 mph N/A   Clear
3:53 PM 52.0 °F - 23.0 °F 32% 30.10 in 10.0 mi NNW 13.8 mph 24.2 mph N/A   Clear
4:53 PM 52.0 °F - 19.9 °F 28% 30.09 in 10.0 mi NNW 19.6 mph 26.5 mph N/A   Clear
5:53 PM 51.1 °F - 17.1 °F 26% 30.07 in 10.0 mi NNW 19.6 mph 25.3 mph N/A   Clear
6:53 PM 50.0 °F - 15.1 °F 25% 30.09 in 10.0 mi North 13.8 mph - N/A   Clear
7:53 PM 46.0 °F 41.0 °F 14.0 °F 28% 30.11 in 10.0 mi North 10.4 mph - N/A   Clear
8:53 PM 42.1 °F 37.1 °F 17.1 °F 37% 30.13 in 10.0 mi North 8.1 mph - N/A   Clear
9:53 PM 41.0 °F 36.4 °F 16.0 °F 36% 30.15 in 10.0 mi NNE 6.9 mph - N/A   Clear
10:53 PM 39.9 °F 35.1 °F 16.0 °F 38% 30.17 in 10.0 mi NNE 6.9 mph - N/A   Clear
11:53 PM 37.9 °F 34.4 °F 18.0 °F 45% 30.19 in 10.0 mi North 4.6 mph - N/A   Clear